Hourly Data Report for April 10, 2021

OTTAWA INTL A
ONTARIO
Current Station Operator: NAVCAN

45°19'00.000" N
75°40'00.000" W
114.90 m
6106001
71628
YOW

Download Data

Hourly Data (April 2021)
Hourly Data Report for April 10, 2021
TIME
LST
Temp Definition
°C
Dew Point Definition
°C
Rel Hum Definition
%
Precip. Amount Definition
mm

Wind Dir Definition
10's deg

Wind Spd Definition
km/h
Visibility Definition
km
Stn Press Definition
kPa
Hmdx Definition


Wind Chill Definition


Weather Definition


00:00 11.0 7.4 78   13 8 24.1 100.09     LegendNANA
01:00 11.0 7.3 78   16 7 24.1 100.11     Mainly Clear
02:00 10.0 6.9 81   14 5 24.1 100.11     LegendNANA
03:00 8.5 6.8 89   10 10 24.1 100.07     LegendNANA
04:00 9.0 7.0 87   13 8 24.1 100.02     Clear
05:00 8.2 6.3 88   13 9 24.1 100.00     LegendNANA
06:00 9.0 6.5 84   16 7 24.1 100.09     LegendNANA
07:00 10.9 7.7 80   15 10 24.1 100.09     Clear
08:00 14.4 8.6 68   18 13 24.1 100.07     LegendNANA
09:00 16.1 9.6 65   18 10 24.1 100.02     LegendNANA
10:00 18.1 9.9 58   14 11 24.1 99.93     Mainly Clear
11:00 19.3 10.3 56   12 6 24.1 99.83     LegendNANA
12:00 20.9 10.1 50   20 11 24.1 99.76     LegendNANA
13:00 22.0 9.9 46   25 5 24.1 99.67     Mainly Clear
14:00 23.3 10.1 43   18 7 24.1 99.57 25   LegendNANA
15:00 24.3 9.0 37   17 18 24.1 99.48 25   LegendNANA
16:00 24.4 8.8 37   15 12 24.1 99.42 25   Mostly Cloudy
17:00 24.0 7.9 35   20 15 24.1 99.38     LegendNANA
18:00 22.1 7.9 40   18 9 24.1 99.34     LegendNANA
19:00 18.3 8.0 51   14 5 24.1 99.28     Mostly Cloudy
20:00 17.2 7.7 53   15 7 24.1 99.25     LegendNANA
21:00 15.8 7.8 59   11 14 24.1 99.19     LegendNANA
22:00 15.8 7.7 58   12 7 24.1 99.18     Mainly Clear
23:00 15.1 7.7 61   14 14 24.1 99.17     LegendNANA

Notes on Data Quality.

Legend

  • E = Estimated
  • M = Missing
  • NA = Not Available*
  • [empty] = Indicates an unobserved value
Date modified: